Location: L�tisburg
(47.3947°N, 9.0820°E)
Time: 07:12:05
(UTC+00:00)

Helios 1A Rocket - Pass Details

Date: 03 March 2021
Orbit: 563 x 585 km, 98.3° (Epoch: 11 April)

Event Time Altitude Azimuth Distance (km) Brightness Sun altitude
Rises 17:38:47 0° 140° (SE) 2,769 6.0 -5.4°
Reaches altitude 10° 17:41:04 10° 130° (SE) 1,872 5.1 -5.7°
Maximum altitude 17:44:41 32° 67° (ENE) 990 3.6 -6.4°
Drops below altitude 10° 17:48:18 10° 4° (N) 1,875 5.5 -7.0°
Sets 17:50:36 0° 355° (N) 2,774 6.5 -7.4°
